Weather History for Beaufort, NC

Change the Weather History Date:

Tuesday, January 8, 2013

  Actual Average Record
Temperature  
Mean Temperature 52 °F -  
Max Temperature 61 °F 54 °F 72 °F (2008)
Min Temperature 42 °F 35 °F 16 °F (1968)
Degree Days  
Heating Degree Days 14    
Growing Degree Days 2 (Base 50)    
Moisture  
Dew Point 45 °F    
Average Humidity 81    
Maximum Humidity 100    
Minimum Humidity 67    
Precipitation  
Precipitation 0.00 in - - ()
Sea Level Pressure  
Sea Level Pressure 30.40 in    
Wind  
Wind Speed 5 mph (NE)    
Max Wind Speed 9 mph    
Max Gust Speed -    
Visibility 9 miles    
Events      
Averages and records for this station are not official NWS values.
T = Trace of Precipitation, MM = Missing Value Source: NWS Daily Summary

Daily Weather History Graph

Daily Weather History Graph

Search for Another Location

Airport:

Trip Planner

Search our weather history database for the weather conditions in past years. The results will help you decide how hot, cold, wet, or windy it might be!

Date:

Astronomy

Jan. 08, 2013 Rise Set
Actual Time 7:14 AM EST 5:12 PM EST
Civil Twilight 6:46 AM EST 5:40 PM EST
Nautical Twilight 6:15 AM EST 6:11 PM EST
Astronomical Twilight 5:45 AM EST 6:42 PM EST
Moon 3:45 AM EST (1/8) 2:12 PM EST (1/8)
Length of Visible Light 10h 53m
Length of Day
9h 58m
Waning Crescent, 14% of the Moon is Illuminated
Jan 8
Waning Crescent
Jan 11
New
Jan 18
First Quarter
Jan 26
Full
Feb 3
Last Quarter

Hourly Weather History & Observations

Time (EST) Temp. Windchill Dew Point Humidity Pressure Visibility Wind Dir Wind Speed Gust Speed Precip Events Conditions
1:58 AM 42.1 °F 38.4 °F 36.0 °F 79% 30.40 in 10.0 mi NE 5.8 mph - N/A   Clear
2:58 AM 42.1 °F 39.2 °F 36.0 °F 79% 30.39 in 10.0 mi NE 4.6 mph - N/A   Clear
3:58 AM 42.1 °F 37.7 °F 37.0 °F 82% 30.38 in 10.0 mi NNE 6.9 mph - N/A   Clear
4:58 AM 42.1 °F 36.6 °F 37.0 °F 82% 30.39 in 10.0 mi NE 9.2 mph - N/A   Clear
5:58 AM 44.1 °F 40.1 °F 39.0 °F 82% 30.40 in 10.0 mi NE 6.9 mph - N/A   Mostly Cloudy
6:58 AM 46.0 °F 41.9 °F 39.9 °F 79% 30.41 in 10.0 mi NE 8.1 mph - N/A   Overcast
7:58 AM 46.9 °F - 41.0 °F 80% 30.43 in 10.0 mi NE 5.8 mph - N/A   Overcast
8:58 AM 50.0 °F - 43.0 °F 77% 30.43 in 10.0 mi ENE 8.1 mph - N/A   Overcast
9:58 AM 51.1 °F - 44.1 °F 77% 30.45 in 10.0 mi ENE 6.9 mph - N/A   Overcast
10:58 AM 52.0 °F - 45.0 °F 77% 30.44 in 10.0 mi NE 8.1 mph - N/A   Overcast
11:58 AM 54.0 °F - 46.0 °F 75% 30.41 in 10.0 mi ENE 5.8 mph - N/A   Overcast
12:58 PM 55.0 °F - 48.0 °F 77% 30.38 in 10.0 mi ENE 3.5 mph - N/A   Overcast
1:58 PM 60.1 °F - 50.0 °F 69% 30.36 in 10.0 mi East 4.6 mph - N/A   Overcast
2:58 PM 61.0 °F - 50.0 °F 67% 30.36 in 10.0 mi East 5.8 mph - N/A   Overcast
3:58 PM 60.1 °F - 48.9 °F 67% 30.38 in 10.0 mi East 5.8 mph - N/A   Overcast
4:58 PM 57.9 °F - 50.0 °F 75% 30.38 in 10.0 mi ENE 3.5 mph - N/A   Overcast
5:58 PM 55.9 °F - 50.0 °F 80% 30.38 in 10.0 mi Calm Calm - N/A   Overcast
6:58 PM 55.0 °F - 51.1 °F 86% 30.40 in 10.0 mi NE 4.6 mph - N/A   Scattered Clouds
7:58 PM 51.1 °F - 48.9 °F 92% 30.40 in 10.0 mi NE 3.5 mph - N/A   Clear
8:58 PM 48.9 °F - 46.9 °F 93% 30.40 in 8.0 mi Calm Calm - N/A   Clear
9:58 PM 46.9 °F - 46.9 °F 100% 30.39 in 6.0 mi Calm Calm - N/A   Clear
10:58 PM 46.9 °F - 46.0 °F 97% 30.39 in 6.0 mi Calm Calm - N/A   Clear
11:58 PM 46.0 °F - 45.0 °F 96% 30.38 in 5.0 mi Calm Calm - N/A   Clear